COSMOS 2557 (706K)

Last updated on Tue Dec 09 2025 00:02:35 GMT+0000 (Coordinated Universal Time)

1 52984U 22075A 25341.18125486 -.00000052 00000+0 00000+0 0 9990 2 52984 64.4129 321.2470 0013704 276.9000 82.9390 2.13101754 26625
UTC large
Height (km)
Speed (km/s)
/
Latitude / Longitude
Inclination (degrees)
Orbital Period (minutes)
Azimuth
Elevation
Range (km)
Doppler Factor

Next 0 passes for location: London (51.5072 / 0.1276)

Sorry there are no passes over London.